Location: Unspecified
(36.5600°N, 136.6600°E)
Time: 18:49:12
(UTC+09:00)

ISS - Pass Details

Date: 27 June 2024
Orbit: 410 x 424 km, 51.6° (Epoch: 17 July)

Event Time Altitude Azimuth Distance (km) Brightness Sun altitude
Exits shadow 03:00:39 13° 291° (WNW) 1,317 -1.5 -16.0°
Maximum altitude 03:02:31 19° 332° (NNW) 1,055 -1.5 -15.8°
Drops below altitude 10° 03:05:01 10° 20° (NNE) 1,493 0.1 -15.4°
Sets 03:07:32 0° 39° (NE) 2,363 1.9 -15.1°
